[[{"header":{"parameterUnit":"m.s-1","parameterCategory":1,"la1":30.2991,"la2":30.254,"lo1":-89.0895,"lo2":-89.0444,"dy":0.0017,"dx":0.0017,"nx":28,"ny":28,"refTime":"2024-05-18T21:00:00:Z","depth":0,"parameterNumber":2,"parameterNumberName":"U-component_of_WINDS"},"data":[0,0,0,0,0,0,0,0,0,0,0,0,0,0,0,0,0,0,0,0,0,0,0,0,0,0,0,0,0,0,0,0,0,0,0,0,0,0,0,0,0,0,0,0,0,0,0,0,0,0,0,0,0,0,0,0,0,0,0.8229,0.8231,0,0.8356,0.8357,0.8358,0.8484,0.8485,0.8487,0.8488,0.8623,0.8625,0.8627,0,0,0,0,0,0,0,0,0,0,0,0,0,0.8105,0.8107,0.8229,0.8231,0.8232,0.8355,0.8357,0.8359,0.8483,0.8485,0.8487,0.8489,0.8622,0.8625,0.8627,0,0,0,0,0,0,0,0,0,0,0,0,0,0.8188,0.8108,0.8229,0.8309,0.8318,0.8355,0.8357,0.8359,0.8483,0.8485,0.8488,0.849,0.8622,0.8625,0.8628,0.8597,0,0,0.8637,0.8638,0,0,0,0,0,0,0,0,0.8183,0.8193,0.8296,0.8304,0.8313,0.8406,0.8363,0.8439,0.8482,0.842,0.8488,0.8491,0.8549,0.8559,0.8577,0.8604,0.861,0.8637,0.8639,0.8641,0.8641,0,0,0,0,0,0,0,0.8177,0.8188,0.8279,0.8297,0.8308,0.8342,0.8357,0.8378,0.847,0.8426,0.8435,0.8448,0.8555,0.8574,0.8581,0.8612,0.8637,0.864,0.8642,0.8643,0.8627,0.8625,0,0,0,0,0,0,0.8158,0.8182,0.8275,0.8283,0.8253,0.8342,0.8358,0.8374,0.847,0.8487,0.8446,0.8454,0.8567,0.8577,0.8586,0.856,0.8641,0.8643,0.8645,0.863,0.8627,0.8624,0,0,0,0,0,0,0.8155,0.8165,0.827,0.8235,0.8251,0.8342,0.8358,0.8375,0.8394,0.8485,0.8503,0.8448,0.857,0.8582,0.8595,0.8567,0.8645,0.8648,0.8632,0.8629,0.8626,0.8505,0,0,0,0,0,0,0.8151,0.8164,0.815,0.8234,0.8253,0.8273,0.8356,0.8376,0.8399,0.841,0.8491,0.8507,0.8572,0.859,0.8598,0.8572,0.865,0.8635,0.8631,0.8627,0.8512,0.8498,0.8486,0,0,0,0,0,0.8146,0.8111,0.8149,0.8159,0.8237,0.8271,0.8282,0.8356,0.8395,0.8385,0.8445,0.8505,0.8569,0.859,0.86,0.8575,0.8637,0.8632,0.8627,0.8518,0.8501,0.8487,0,0,0,0,0,0,0.8022,0.8123,0.8166,0.8157,0.8204,0.8292,0.8279,0.8335,0.8373,0.8382,0.8475,0.8492,0.8495,0.8538,0.8559,0.8555,0.8612,0.8609,0.8526,0.851,0.8498,0.8487,0.8653,0,0,0,0,0,0.7993,0.8009,0.8099,0.8082,0.8104,0.8187,0.8205,0.8258,0.8312,0.8333,0.8393,0.8445,0.8478,0.8497,0.8532,0.8521,0.8543,0.851,0.8497,0.8486,0.8481,0.8484,0.8471,0.8608,0.8608,0.8608,0,0,0.7934,0.7992,0.7996,0.8059,0.8101,0.8119,0.8203,0.8217,0.8233,0.8336,0.8351,0.8398,0.8463,0.8465,0.8469,0.85,0.8449,0.8479,0.8469,0.8471,0.8477,0.8464,0.8452,0.8604,0.8605,0.8605,0,0,0.7835,0.788,0.7872,0.7914,0.7979,0.8036,0.8034,0.8115,0.815,0.8167,0.8246,0.8269,0.8321,0.8366,0.8395,0.8321,0.8379,0.833,0.8261,0.8263,0.8252,0.8243,0.8219,0.8209,0.8326,0.8326,0.8326,0,0.7753,0.778,0.7861,0.7872,0.7898,0.7994,0.7989,0.8027,0.81,0.8118,0.8153,0.8225,0.8275,0.8291,0.8273,0.8293,0.8298,0.8319,0.8247,0.8239,0.8231,0.821,0.82,0.8319,0.832,0.8321,0.8321,0,0.7678,0.7697,0.7684,0.7751,0.7777,0.778,0.7865,0.7883,0.7936,0.7991,0.8011,0.8076,0.8128,0.8137,0.8188,0.8162,0.818,0.8229,0.8288,0.8211,0.8192,0.8184,0.831,0.8312,0.8314,0.8316,0,0,0.7498,0.7615,0.7608,0.7642,0.7724,0.7741,0.7752,0.7801,0.7816,0.7866,0.7879,0.7925,0.7974,0.8007,0.8067,0.8068,0.8009,0.8119,0.8122,0.8097,0.7989,0.795,0.7938,0.805,0.8049,0.8048,0.7984,0,0.7413,0.7432,0.7509,0.7507,0.7528,0.7623,0.7633,0.7686,0.774,0.7769,0.7831,0.7862,0.7922,0.7944,0.795,0.8014,0.7989,0.8021,0.8067,0.8067,0.8045,0.7928,0.7886,0.7821,0.7977,0.7976,0.7975,0,0.7313,0.7357,0.7356,0.7442,0.7454,0.746,0.7515,0.754,0.7606,0.7646,0.7687,0.7754,0.7776,0.7833,0.7867,0.7888,0.7913,0.7949,0.7948,0.7954,0.8014,0.7931,0.7802,0.7792,0.7964,0.7965,0.7965,0,0.7183,0.7242,0.725,0.7277,0.7376,0.738,0.7422,0.749,0.7517,0.7568,0.7587,0.7639,0.7668,0.771,0.7792,0.7826,0.7819,0.7882,0.7856,0.7853,0.7847,0.7846,0.772,0.7864,0.7864,0.7864,0.7865,0,0.7078,0.7074,0.7193,0.7198,0.72,0.7291,0.7291,0.7344,0.7405,0.7426,0.7513,0.7532,0.7639,0.7673,0.7738,0.7759,0.7771,0.7807,0.7824,0.7798,0.7794,0.7814,0.7821,0.7862,0.7863,0.7863,0.7863,0,0.6929,0.7009,0.7025,0.712,0.7144,0.7141,0.7225,0.7236,0.7298,0.7324,0.7336,0.7433,0.7478,0.7565,0.7633,0.7679,0.7685,0.7715,0.7661,0.7671,0.7641,0.7642,0.7522,0.7513,0.7662,0.7661,0.7659,0,0.6856,0.6856,0.6951,0.6971,0.7009,0.7039,0.7068,0.7161,0.7188,0.7267,0.727,0.7321,0.7366,0.7434,0.7514,0.7569,0.7602,0.7557,0.7611,0.7587,0.7603,0.7601,0.7604,0.7543,0.7541,0.7539,0.7538,0,0.6717,0.6758,0.6794,0.6846,0.6877,0.6923,0.6974,0.6986,0.7093,0.712,0.7165,0.72,0.7272,0.7323,0.7392,0.7442,0.7509,0.7521,0.7519,0.7491,0.7459,0.7478,0.7627,0.7522,0.7524,0.7525,0.7526,0.7527,0.6605,0.661,0.6679,0.6719,0.6768,0.6815,0.6831,0.6897,0.6935,0.6998,0.7054,0.7095,0.717,0.7268,0.7315,0.7353,0.7385,0.738,0.7379,0.7376,0.7366,0.7455,0.7366,0.7367,0.7367,0.7368,0.7368,0,0.6471,0.6521,0.6557,0.6625,0.6658,0.6719,0.6781,0.6805,0.6839,0.6902,0.6946,0.7002,0.7054,0.7141,0.7202,0.7217,0.725,0.723,0.7229,0.724,0.7333,0.733,0.7202,0.7202,0.7202,0.7202,0.7202,0.7202,0.6404,0.6418,0.6469,0.6511,0.6563,0.6602,0.6633,0.668,0.673,0.6788,0.6831,0.6887,0.6962,0.7031,0.7084,0.711,0.7129,0.7098,0.7133,0.7218,0.7233,0.7248,0.7245,0.7102,0.7102,0.7038,0.7037,0.7037]},{"header":{"parameterUnit":"m.s-1","parameterCategory":1,"la1":30.2991,"la2":30.254,"lo1":-89.0895,"lo2":-89.0444,"dy":0.0017,"dx":0.0017,"nx":28,"ny":28,"refTime":"2024-05-18T21:00:00:Z","depth":0,"parameterNumber":3,"parameterNumberName":"V-component_of_WINDS"},"data":[0,0,0,0,0,0,0,0,0,0,0,0,0,0,0,0,0,0,0,0,0,0,0,0,0,0,0,0,0,0,0,0,0,0,0,0,0,0,0,0,0,0,0,0,0,0,0,0,0,0,0,0,0,0,0,0,0,0,9.1435,9.1437,0,9.1688,9.1691,9.1694,9.1706,9.1703,9.17,9.1697,9.1947,9.1957,9.1966,0,0,0,0,0,0,0,0,0,0,0,0,0,9.0942,9.0951,9.1434,9.1438,9.1441,9.1687,9.1691,9.1694,9.1707,9.1703,9.1699,9.1696,9.1944,9.1955,9.1967,0,0,0,0,0,0,0,0,0,0,0,0,0,9.1172,9.0954,9.1434,9.1477,9.1483,9.1687,9.1691,9.1695,9.1707,9.1703,9.1698,9.1694,9.1941,9.1954,9.1968,9.2143,0,0,9.2011,9.2017,0,0,0,0,0,0,0,0,9.1159,9.119,9.1467,9.1474,9.1482,9.1661,9.1609,9.1845,9.1708,9.1622,9.1697,9.1692,9.1855,9.1876,9.1933,9.2155,9.2166,9.2013,9.2021,9.2027,9.2031,0,0,0,0,0,0,0,9.1143,9.1179,9.1534,9.1471,9.148,9.1477,9.1505,9.1654,9.176,9.1629,9.1631,9.1661,9.1858,9.1919,9.1939,9.217,9.2012,9.2025,9.2033,9.2039,9.2532,9.2536,0,0,0,0,0,0,9.1121,9.1166,9.1526,9.1542,9.1306,9.149,9.1521,9.1608,9.1758,9.1777,9.1664,9.1661,9.1897,9.1922,9.1948,9.2153,9.2027,9.204,9.2048,9.2527,9.2533,9.2538,0,0,0,0,0,0,9.111,9.1153,9.1516,9.1354,9.14,9.1503,9.16,9.1615,9.1677,9.1785,9.1803,9.1709,9.1895,9.1928,9.2092,9.2162,9.2047,9.2059,9.2522,9.2529,9.2535,9.257,0,0,0,0,0,0,9.1096,9.1149,9.1222,9.1356,9.1409,9.1662,9.1605,9.1623,9.1702,9.1699,9.1831,9.1849,9.1894,9.2071,9.2106,9.2179,9.207,9.2516,9.2525,9.2533,9.2563,9.2578,9.259,0,0,0,0,0,9.1078,9.1223,9.1226,9.1269,9.1503,9.1667,9.1696,9.1748,9.1708,9.1777,9.1845,9.1845,9.2149,9.2087,9.2127,9.2206,9.2512,9.2522,9.2532,9.2557,9.2575,9.259,0,0,0,0,0,0,9.1095,9.1242,9.1247,9.144,9.154,9.1668,9.176,9.1767,9.1879,9.1872,9.1928,9.1957,9.2117,9.2178,9.2107,9.2375,9.2325,9.2343,9.233,9.2348,9.2361,9.2341,9.2082,0,0,0,0,0,9.1121,9.1246,9.1366,9.1525,9.1575,9.1658,9.1731,9.1761,9.1866,9.1908,9.1989,9.2087,9.2203,9.2279,9.2394,9.2572,9.2594,9.2644,9.2657,9.2668,9.2682,9.2768,9.2789,9.2572,9.2572,9.2572,0,0,9.1177,9.1272,9.1348,9.153,9.1612,9.1732,9.1694,9.1827,9.1914,9.1928,9.2086,9.2147,9.2259,9.2428,9.2506,9.2484,9.2746,9.2681,9.2689,9.2698,9.2781,9.2801,9.2819,9.2579,9.2578,9.2577,0,0,9.1339,9.1428,9.1564,9.1644,9.1767,9.1819,9.1851,9.1976,9.2016,9.2176,9.2185,9.2286,9.249,9.2565,9.2631,9.2806,9.2805,9.2841,9.291,9.2993,9.301,9.3025,9.3078,9.3098,9.2856,9.2856,9.2856,0,9.1392,9.1579,9.1632,9.1762,9.1836,9.1852,9.1984,9.2059,9.2212,9.2259,9.2232,9.2478,9.2557,9.2737,9.2778,9.2834,9.2864,9.2826,9.3004,9.302,9.3034,9.3085,9.3106,9.2859,9.2859,9.2858,9.2858,0,9.1632,9.176,9.1854,9.1999,9.2084,9.2215,9.228,9.2358,9.2377,9.2429,9.2584,9.2677,9.2804,9.2849,9.2872,9.3029,9.301,9.2993,9.2942,9.3057,9.3105,9.3126,9.2863,9.2862,9.2861,9.286,0,0,9.1818,9.1982,9.2015,9.2075,9.2206,9.2303,9.2428,9.2553,9.2614,9.2716,9.2816,9.2981,9.2962,9.3036,9.3065,9.3139,9.3258,9.3111,9.3114,9.3128,9.3425,9.3433,9.3456,9.3259,9.3263,9.3266,9.3412,0,9.1988,9.2215,9.226,9.2454,9.2566,9.2577,9.2684,9.2771,9.282,9.2917,9.297,9.3082,9.3055,9.3097,9.317,9.3228,9.3317,9.3219,9.3345,9.3349,9.3312,9.3483,9.3495,9.3629,9.3433,9.3436,9.3439,0,9.2219,9.2322,9.2527,9.263,9.2679,9.2776,9.2886,9.2982,9.3076,9.3105,9.3181,9.3199,9.332,9.3264,9.3426,9.3357,9.341,9.3445,9.3451,9.3462,9.3398,9.3491,9.3674,9.3692,9.3471,9.3468,9.3466,0,9.2322,9.2513,9.2657,9.2709,9.2837,9.2901,9.2956,9.3047,9.3114,9.3209,9.3252,9.336,9.3417,9.3497,9.3539,9.3497,9.3693,9.3644,9.3714,9.3712,9.3754,9.375,9.3941,9.3797,9.3797,9.3796,9.3796,0,9.2504,9.2627,9.2703,9.2791,9.2924,9.297,9.3099,9.3153,9.323,9.3322,9.3339,9.3424,9.3478,9.3568,9.3601,9.3723,9.3751,9.3772,9.3779,9.3769,9.3765,9.3802,9.3791,9.3802,9.38,9.3799,9.3798,0,9.2643,9.2701,9.2856,9.296,9.2988,9.3081,9.3167,9.3248,9.3293,9.3409,9.3439,9.3509,9.3615,9.3665,9.3798,9.3819,9.3955,9.3959,9.3923,9.3925,9.3989,9.3979,9.4207,9.4235,9.4077,9.4078,9.408,0,9.2753,9.2847,9.2958,9.3021,9.3077,9.318,9.3247,9.3292,9.336,9.3467,9.3533,9.3639,9.3727,9.3894,9.3953,9.405,9.4052,9.4125,9.4067,9.4049,9.4044,9.4035,9.404,9.4134,9.4136,9.4137,9.4138,0,9.294,9.296,9.3059,9.3162,9.3241,9.3326,9.3409,9.3458,9.3514,9.3589,9.3697,9.3764,9.3895,9.3996,9.4096,9.4146,9.4148,9.4155,9.4175,9.4163,9.4136,9.4143,9.3945,9.415,9.4149,9.4148,9.4147,9.4147,9.3063,9.3141,9.3229,9.3333,9.3399,9.3473,9.355,9.3603,9.3694,9.3805,9.3824,9.3936,9.4015,9.4149,9.4201,9.4284,9.4267,9.4298,9.4305,9.4311,9.431,9.4126,9.4303,9.4303,9.4303,9.4303,9.4303,0,9.3243,9.3297,9.3393,9.3505,9.3584,9.358,9.3668,9.3732,9.3831,9.3906,9.399,9.4107,9.4203,9.4266,9.4361,9.4414,9.4417,9.4437,9.4431,9.444,9.4324,9.4294,9.4433,9.4433,9.4433,9.4433,9.4433,9.4433,9.3346,9.3475,9.3503,9.3661,9.3713,9.3824,9.3872,9.3936,9.3995,9.4126,9.4205,9.4246,9.4313,9.4411,9.4495,9.451,9.4541,9.4561,9.4574,9.4464,9.445,9.4437,9.4408,9.4569,9.4569,9.4683,9.4684,9.4684]}]]